Vertical_Velocity
-2 -2 -3 -3 -3 -3 -2 -2 -1 -2 -2 -3 -4 -5 -5 -5 -5 -5 -4 -4 -5 -6 -8 -8 -8 -7 -5 -3 -2 -2 -2 -3 -4 -4 -3 -3 -3 -3 -1 1 7 15 22 29 27 19 9 2 8 17 23 20 11 5 1 -1 -2 -2 -2 -2 -3 -3 -3 -3 -1 0 1 1 1
-2 -1 -1 -1 -1 -1 -1 -1 -0 -1 -1 -2 -4 -5 -6 -6 -7 -7 -6 -5 -5 -6 -7 -8 -7 -7 -6 -4 -2 -2 -2 -4 -5 -5 -5 -4 -4 -3 -2 0 4 7 11 17 25 26 22 16 21 31 37 30 18 9 3 0 -1 -2 -2 -2 -3 -3 -3 -4 -2 -1 -0 -0 1
-1 -1 -0 1 0 -0 -1 -2 -2 -2 -2 -3 -3 -4 -6 -7 -7 -8 -7 -7 -6 -6 -6 -8 -8 -7 -6 -5 -3 -2 -2 -3 -5 -6 -6 -5 -4 -3 -2 -0 3 5 6 6 14 24 30 26 26 35 43 37 23 14 7 3 -0 -2 -2 -1 -2 -3 -4 -4 -2 -1 -1 -1 1
0 0 -0 -0 -0 -1 -2 -3 -3 -4 -3 -4 -4 -4 -5 -5 -6 -6 -7 -7 -6 -6 -6 -7 -8 -8 -6 -5 -4 -2 -1 -1 -4 -6 -7 -7 -5 -4 -3 -1 2 3 4 3 6 18 27 28 25 31 39 40 28 19 12 8 4 1 -1 1 -0 -2 -3 -2 -1 -2 -2 -1 0
1 1 0 -0 -1 -1 -2 -2 -3 -4 -4 -4 -4 -4 -4 -5 -5 -6 -6 -7 -6 -5 -5 -5 -6 -7 -6 -5 -4 -3 -2 -1 -2 -4 -6 -7 -6 -5 -4 -3 -0 1 3 3 5 13 21 22 20 22 28 35 28 19 13 11 8 5 2 2 0 -1 -1 0 -1 -2 -2 -0 1
-0 -0 -0 -0 -1 -1 -1 -1 -1 -2 -3 -3 -3 -4 -4 -4 -5 -5 -6 -7 -6 -5 -4 -4 -4 -5 -5 -4 -4 -3 -3 -2 -1 -2 -4 -6 -6 -5 -5 -4 -2 -0 2 3 5 10 14 17 13 12 14 19 19 14 9 8 8 6 5 3 0 1 2 2 -0 -1 -1 0 1
-1 -1 -1 -1 -1 -1 -1 -1 -1 -1 -2 -2 -3 -4 -4 -4 -4 -4 -5 -5 -6 -6 -5 -4 -4 -4 -4 -4 -3 -2 -2 -2 -1 -1 -2 -4 -4 -4 -4 -4 -3 -1 0 2 4 6 9 12 9 6 4 3 1 -0 0 2 3 4 5 4 1 1 2 2 0 -1 -2 -1 1
-0 -0 -0 -1 -0 -1 -1 -1 -2 -2 -3 -3 -3 -3 -4 -4 -4 -5 -5 -5 -5 -5 -5 -4 -4 -3 -3 -2 -2 -2 -2 -2 -2 -1 -1 -1 -2 -3 -3 -2 -2 -1 -0 1 2 4 4 4 2 -0 -2 -4 -4 -2 -0 0 1 3 5 6 2 0 -0 1 0 -2 -4 -3 1
0 0 0 0 -0 -0 -1 -1 -2 -2 -3 -3 -3 -3 -3 -4 -4 -5 -5 -5 -4 -4 -4 -4 -4 -3 -2 -1 -1 -1 -2 -2 -2 -2 -1 -0 -1 -1 -2 -2 -2 -2 -1 -0 1 2 3 2 -2 -4 -2 2 2 2 3 2 2 4 6 6 4 2 1 0 -1 -3 -4 -3 0
-1 -1 -1 -2 -1 -1 -1 -1 -1 -1 -2 -3 -3 -2 -2 -2 -3 -4 -4 -5 -4 -4 -3 -4 -3 -2 -1 -1 -0 -1 -1 -2 -2 -2 -1 -0 -0 -1 -1 -2 -2 -2 -2 -2 -0 1 1 1 1 6 13 20 20 19 16 11 6 5 4 4 4 3 1 -2 -3 -4 -4 -3 -0
-1 -2 -2 -3 -3 -2 -2 -2 -2 -2 -2 -3 -3 -3 -2 -2 -2 -3 -3 -4 -3 -3 -3 -3 -3 -3 -2 -1 -0 -0 -1 -1 -2 -2 -2 -1 -1 -1 -2 -4 -3 -1 -0 -1 -1 -0 -0 -3 -2 6 17 27 30 31 29 24 16 11 7 4 4 2 -1 -6 -6 -5 -4 -4 -3
-1 -2 -2 -2 -2 -2 -2 -2 -3 -3 -3 -4 -4 -3 -2 -1 -2 -3 -3 -2 -2 -2 -2 -1 -2 -2 -2 -1 -0 -0 -0 -1 -1 -2 -2 -2 -1 -1 -2 -4 -2 3 6 4 2 1 -0 -2 -4 -1 9 24 29 26 22 20 18 15 11 7 3 0 -3 -6 -5 -4 -2 -1 -2
-1 -2 -2 -2 -2 -3 -3 -3 -3 -3 -4 -4 -4 -3 -2 -1 -2 -3 -3 -3 -2 -2 -2 -1 -1 -1 -2 -2 -1 -1 -0 -0 -0 -1 -1 -2 -2 -2 -4 -4 2 11 17 16 9 4 1 -1 -2 -1 5 16 20 16 9 6 8 8 7 4 1 -2 -3 -4 -3 -1 0 2 3
-1 -1 -2 -2 -2 -3 -3 -3 -3 -3 -4 -5 -4 -3 -2 -2 -3 -3 -3 -3 -2 -2 -2 -1 -1 -1 -1 -1 -1 -1 -1 -0 -0 -0 -1 -2 -2 -3 -4 -4 5 17 28 31 19 8 1 -1 -1 0 2 6 7 4 -0 -3 -2 -0 0 -0 -1 -0 -0 -0 -1 -0 1 2 5
-1 -1 -1 -2 -2 -3 -3 -3 -4 -4 -5 -5 -4 -3 -2 -2 -3 -4 -3 -3 -2 -2 -2 -2 -2 -1 -1 -0 -1 -1 -1 -1 -1 -1 -1 -2 -3 -4 -4 -2 5 16 28 39 30 16 4 -0 -0 1 2 4 4 1 -2 -5 -4 -3 -1 -0 1 3 3 3 2 1 1 1 3
-2 -1 -1 -1 -2 -2 -3 -3 -4 -4 -5 -6 -5 -3 -2 -2 -3 -4 -4 -3 -2 -2 -2 -2 -2 -2 -2 -1 -1 -2 -2 -1 -1 -1 -2 -4 -4 -4 -3 -2 3 10 20 33 36 28 16 6 2 -0 -0 1 1 -0 -2 -5 -4 -2 -0 1 3 4 4 3 3 2 1 1 1
-2 -1 -1 -1 -1 -2 -2 -2 -3 -4 -5 -6 -4 -2 -1 -2 -4 -4 -4 -4 -3 -2 -2 -2 -2 -2 -2 -1 -1 -1 -0 0 0 -1 -3 -5 -4 -3 -2 -2 -1 3 10 20 30 32 30 21 13 7 2 -1 -1 -1 -2 -4 -3 -2 0 2 3 3 3 2 2 2 2 0 -0
-2 -2 -1 -1 -1 -2 -2 -2 -2 -3 -4 -5 -4 -2 -1 -2 -4 -5 -5 -3 -2 -2 -2 -2 -2 -1 -1 -1 0 1 2 2 1 -0 -1 -2 -2 -1 -2 -2 -3 -2 2 8 17 23 27 28 25 19 12 4 2 1 -0 -1 -2 -1 1 3 4 3 3 2 2 2 2 2 2
-3 -2 -1 -1 -1 -2 -2 -2 -2 -3 -4 -5 -4 -3 -1 -1 -3 -5 -5 -3 -1 -1 -1 -1 -1 -1 -0 0 2 3 4 4 3 3 4 5 4 2 1 0 -1 -2 -2 -0 6 12 17 19 21 20 14 7 4 3 2 1 0 -0 1 3 4 4 3 2 2 3 3 4 6
-2 -2 -1 -1 -2 -2 -2 -2 -2 -2 -3 -5 -5 -3 -1 -0 -2 -4 -4 -3 -1 0 -0 -1 -1 -1 -1 -0 2 4 5 5 4 6 8 9 8 6 4 2 0 -1 -2 -2 2 7 10 11 11 9 7 4 3 2 2 2 2 2 3 4 6 6 6 5 5 4 4 4 7
-2 -2 -2 -1 -2 -2 -2 -2 -1 -2 -3 -4 -5 -4 -2 -0 -1 -2 -3 -2 -0 1 1 -0 -1 -1 -2 -1 1 3 5 6 5 5 5 7 7 5 3 0 -2 -3 -3 -2 1 3 5 5 4 2 0 -0 -0 0 1 1 2 3 4 7 9 10 9 8 7 5 3 2 4
-2 -2 -1 -1 -1 -1 -1 -1 -1 -1 -2 -3 -5 -4 -2 0 0 -0 -2 -2 0 2 2 0 -1 -2 -2 -2 -1 1 4 5 5 4 3 3 4 4 2 -0 -2 -4 -4 -3 -1 0 1 1 -1 -2 -2 -2 -2 -1 -0 1 3 5 7 10 13 14 14 12 8 4 2 1 1
-2 -2 -1 -1 -1 -1 -1 -1 -0 -0 -1 -2 -4 -4 -3 -0 1 1 -0 -1 0 2 2 2 -0 -1 -2 -1 -1 0 2 3 4 3 2 1 2 2 1 -0 -2 -1 1 4 5 4 2 -0 -2 -3 -4 -3 -2 -0 2 5 8 10 12 14 15 16 16 14 8 3 0 -0 0
-1 -1 -1 -1 -1 -1 -1 -0 0 0 -0 -2 -4 -4 -3 -1 1 1 1 -0 -0 1 3 3 1 0 -0 -0 -0 0 0 1 2 2 2 1 1 1 1 1 0 2 4 7 8 8 6 5 3 2 1 2 4 7 9 12 13 14 14 14 15 16 16 13 7 2 -0 -1 -0
-1 -1 -1 -1 -1 -1 -1 -0 0 1 0 -1 -3 -4 -4 -2 0 1 1 1 0 1 2 3 2 1 1 0 -0 -0 -0 0 1 1 2 2 2 2 2 3 4 4 5 7 8 8 8 8 8 8 8 9 10 11 12 12 12 11 11 11 12 14 14 11 6 2 0 -0 -0
-0 -0 -0 -0 -1 -1 -1 -0 0 1 0 -0 -2 -3 -4 -3 -1 1 1 1 0 1 2 3 2 1 1 0 -0 -0 -0 -0 0 1 2 4 4 5 5 5 6 7 8 8 8 8 9 9 10 10 11 11 11 11 10 9 8 7 7 7 9 10 10 8 5 2 1 1 2
-0 -0 -0 -0 -0 -1 -1 -1 0 1 1 0 -1 -2 -4 -3 -2 -0 0 1 1 1 2 4 3 2 1 0 0 0 0 0 0 0 1 3 5 7 8 9 9 10 10 10 10 9 8 8 9 10 10 10 10 9 8 7 5 5 5 5 7 7 7 6 4 4 3 4 4
-0 -0 -0 -0 -0 -1 -1 -0 0 1 1 1 -0 -2 -3 -4 -2 -1 -0 0 1 2 3 4 4 3 2 1 0 0 1 1 1 1 1 1 2 4 7 9 11 11 11 10 10 10 8 7 6 6 6 6 6 6 6 6 5 5 5 5 6 6 6 5 5 5 5 6 5
-1 -1 -0 -0 -0 -1 -1 -1 0 1 1 1 0 -1 -2 -3 -2 -1 -0 -0 0 1 2 4 4 4 3 1 1 0 1 1 1 2 1 1 1 2 3 4 5 6 6 6 6 6 7 7 6 4 3 2 2 2 2 2 3 4 4 5 5 6 6 6 6 6 6 6 6
-1 -1 -1 -0 -0 -0 -0 -0 -0 0 0 1 1 -0 -1 -2 -2 -1 -1 -0 -0 0 1 2 3 4 3 2 1 0 -0 -0 0 1 2 2 2 1 1 1 1 1 1 1 2 2 2 4 5 4 3 1 1 0 -0 -1 -0 -0 1 2 3 4 5 6 6 6 6 6 5
-1 -0 -0 -0 0 -0 -0 -0 -0 -0 0 0 1 1 -0 -1 -1 -1 -1 -0 -0 -0 0 1 2 3 3 2 1 1 -0 -0 -0 0 1 2 2 2 2 1 1 0 -0 -0 -0 -1 -0 1 2 3 2 1 -0 -1 -2 -2 -2 -2 -1 -0 1 2 3 4 5 5 5 5 4
0 0 0 0 1 1 0 -0 -0 -0 -0 0 0 1 1 0 -0 -1 -1 -1 -0 -0 -0 0 2 2 2 2 2 1 1 0 -0 -0 0 1 1 2 2 2 1 1 1 0 -0 -2 -2 -1 0 1 1 -0 -1 -2 -3 -3 -2 -2 -1 -1 -0 1 2 2 3 3 4 4 3
1 1 1 1 1 1 1 0 -0 -0 -0 -0 -0 0 1 1 1 0 -0 -0 -0 -0 -0 -0 1 1 2 2 2 2 2 2 1 1 1 1 1 1 2 2 2 2 2 2 0 -2 -3 -3 -2 -1 -1 -1 -1 -1 -1 -1 -1 -1 -1 -0 0 1 1 2 2 2 3 3 3
1 1 1 1 1 1 1 0 -0 -0 -0 -0 -0 -0 0 1 1 1 1 1 -0 -0 -0 -1 -0 0 1 2 2 2 2 2 2 2 1 1 1 1 2 2 2 3 3 3 1 -1 -3 -3 -2 -1 -1 -1 -0 1 1 1 1 1 0 0 1 1 2 2 2 2 3 3 3
0 0 1 1 1 1 1 1 0 -0 -0 -0 -0 -0 -0 0 1 2 2 2 1 0 -0 -1 -0 -0 0 1 2 2 2 2 3 2 1 1 1 2 3 3 3 3 4 5 2 -1 -4 -3 -1 -1 -0 0 1 2 3 3 2 1 0 0 0 1 1 2 2 2 2 2 2
-0 -1 -0 -0 0 0 0 0 0 0 0 0 -0 -0 -0 0 1 1 2 2 2 1 0 -0 -0 -0 -0 -0 1 2 2 2 2 1 1 0 1 3 4 5 4 5 6 8 3 -2 -5 -3 -2 -2 -1 0 1 2 3 2 1 1 -0 -1 -1 -0 0 1 2 2 2 2 2
-1 -1 -1 -1 -1 -0 -0 -0 0 0 1 1 0 -0 -0 -0 0 1 1 2 2 2 2 1 0 -0 -0 0 1 2 2 2 1 0 -1 -1 0 2 4 5 5 6 7 8 4 -2 -5 -4 -3 -3 -2 -1 0 1 2 2 1 -0 -1 -1 -1 -1 0 1 2 2 2 2 1
-1 -1 -1 -1 -1 -1 -0 -0 -0 -0 0 1 1 0 0 -0 -0 0 0 1 1 2 2 2 1 1 1 1 1 2 2 2 1 0 -0 -1 0 2 3 4 4 4 5 6 3 -1 -4 -3 -3 -3 -3 -2 -1 0 1 1 0 -0 -0 -1 -0 0 1 2 2 2 1 0 0
-1 -1 -1 -1 -1 -1 -1 -0 -1 -1 -1 -0 0 1 1 0 0 0 0 -0 0 1 1 1 1 1 1 1 1 1 1 2 2 1 0 -0 1 1 2 3 2 2 3 4 2 0 -1 -1 -2 -2 -2 -2 -1 -0 0 1 1 0 0 -0 0 1 1 2 2 2 0 -1 -1
-1 -1 -0 -0 -1 -1 -1 -0 -0 -0 -1 -1 -1 -0 0 0 0 0 0 0 -0 -0 0 0 1 1 1 1 1 1 1 1 2 2 1 1 1 1 2 2 2 2 2 2 2 1 -0 -1 -1 -2 -2 -1 -1 -1 -0 0 1 1 1 1 1 1 1 1 2 1 -0 -1 -1
-1 -1 -0 0 0 -0 -1 -1 -0 -0 -0 -1 -1 -1 -0 0 0 1 1 0 0 -0 -0 -0 0 0 0 0 0 -0 -0 -0 1 2 2 2 2 1 1 1 1 2 2 2 2 2 1 -1 -1 -2 -1 -0 -0 -0 -0 -0 1 1 2 2 1 1 1 1 1 1 -0 -0 -0
Height
3007 3006 3004 3003 3001 3000 2998 2997 2995 2994 2992 2990 2989 2987 2986 2984 2983 2981 2980 2979 2977 2975 2974 2974 2973 2972 2971 2971 2971 2971 2971 2972 2972 2973 2973 2973 2973 2974 2975 2975 2976 2977 2977 2977 2977 2976 2977 2977 2979 2980 2980 2980 2980 2981 2982 2983 2984 2985 2986 2987 2988 2989 2990 2991 2992 2993 2994 2995 2995
3006 3004 3003 3001 3000 2998 2997 2995 2994 2993 2991 2990 2988 2986 2984 2983 2981 2980 2978 2977 2975 2974 2972 2971 2970 2969 2968 2968 2968 2968 2968 2968 2968 2969 2969 2970 2970 2971 2971 2971 2972 2973 2973 2973 2974 2975 2975 2975 2977 2977 2977 2976 2976 2977 2978 2979 2981 2982 2983 2984 2985 2986 2987 2988 2989 2990 2991 2992 2993
3004 3003 3001 3000 2998 2997 2995 2994 2992 2991 2990 2988 2986 2985 2983 2981 2979 2978 2976 2975 2973 2971 2970 2968 2967 2966 2965 2965 2965 2964 2964 2964 2965 2965 2965 2966 2966 2967 2968 2968 2968 2969 2970 2970 2970 2972 2973 2973 2974 2975 2975 2973 2973 2974 2975 2976 2978 2979 2980 2981 2982 2984 2985 2986 2986 2987 2988 2990 2990
3003 3001 3000 2998 2997 2995 2994 2992 2990 2989 2988 2986 2985 2983 2981 2979 2977 2975 2974 2972 2970 2969 2967 2966 2964 2963 2962 2962 2961 2961 2961 2961 2961 2961 2961 2962 2963 2964 2965 2965 2965 2965 2966 2966 2967 2969 2970 2970 2970 2972 2973 2970 2970 2971 2972 2974 2975 2976 2977 2978 2980 2981 2982 2983 2984 2985 2986 2987 2988
3001 3000 2998 2997 2995 2994 2992 2991 2989 2987 2986 2984 2982 2980 2978 2976 2975 2972 2970 2969 2967 2966 2964 2963 2961 2960 2959 2959 2958 2958 2957 2957 2957 2957 2958 2958 2959 2960 2961 2962 2962 2962 2962 2963 2965 2966 2968 2968 2968 2970 2970 2968 2967 2968 2969 2971 2972 2973 2974 2975 2977 2978 2980 2980 2982 2983 2984 2985 2985
3000 2998 2997 2995 2994 2992 2991 2989 2987 2985 2983 2981 2980 2978 2976 2974 2972 2970 2968 2965 2964 2962 2961 2959 2958 2957 2956 2955 2955 2954 2954 2954 2954 2954 2954 2955 2955 2956 2957 2958 2959 2959 2960 2960 2962 2964 2965 2965 2966 2967 2966 2965 2965 2965 2966 2968 2969 2970 2972 2973 2974 2975 2977 2978 2979 2980 2982 2983 2983
2998 2997 2995 2994 2992 2991 2989 2987 2985 2983 2981 2979 2977 2975 2973 2971 2969 2967 2965 2963 2960 2959 2957 2956 2954 2953 2952 2951 2951 2950 2950 2950 2950 2950 2950 2951 2951 2952 2953 2954 2955 2956 2957 2957 2959 2960 2962 2963 2964 2964 2964 2964 2964 2964 2965 2966 2966 2967 2969 2970 2971 2972 2974 2975 2976 2978 2979 2980 2981
2997 2995 2994 2992 2990 2989 2987 2985 2983 2981 2979 2977 2975 2973 2970 2968 2966 2964 2962 2960 2957 2955 2954 2952 2951 2950 2949 2948 2947 2947 2947 2946 2946 2947 2947 2947 2948 2948 2949 2950 2951 2953 2954 2955 2956 2957 2959 2960 2961 2961 2961 2961 2961 2961 2962 2963 2964 2965 2966 2967 2968 2969 2970 2972 2973 2975 2976 2978 2979
2996 2994 2992 2991 2989 2987 2985 2983 2981 2979 2977 2975 2973 2970 2968 2966 2964 2961 2959 2956 2954 2952 2950 2949 2947 2946 2945 2945 2944 2944 2943 2943 2943 2943 2944 2944 2944 2945 2946 2947 2948 2949 2950 2951 2953 2954 2955 2957 2958 2959 2958 2957 2957 2958 2959 2960 2961 2962 2963 2964 2965 2966 2967 2968 2970 2971 2973 2975 2976
2994 2992 2990 2989 2987 2985 2983 2981 2979 2977 2975 2972 2970 2968 2966 2964 2961 2959 2956 2953 2951 2949 2947 2945 2944 2943 2942 2941 2941 2940 2940 2940 2940 2940 2940 2941 2941 2942 2943 2943 2944 2945 2947 2948 2950 2951 2952 2954 2956 2956 2956 2956 2955 2955 2955 2956 2957 2958 2959 2960 2961 2963 2964 2965 2967 2969 2971 2972 2974
2992 2990 2988 2986 2985 2983 2980 2979 2976 2974 2972 2970 2968 2966 2964 2961 2959 2956 2953 2951 2949 2946 2945 2943 2941 2940 2940 2939 2938 2938 2937 2937 2937 2937 2937 2938 2939 2939 2940 2941 2941 2943 2944 2945 2946 2947 2949 2950 2952 2954 2954 2953 2953 2954 2954 2954 2955 2955 2957 2958 2959 2960 2962 2963 2965 2967 2969 2970 2971
2990 2989 2986 2985 2982 2980 2978 2976 2974 2972 2970 2967 2965 2964 2961 2959 2956 2954 2951 2949 2946 2944 2942 2941 2940 2938 2937 2937 2936 2935 2935 2935 2935 2935 2935 2935 2936 2937 2938 2939 2939 2940 2941 2942 2944 2945 2946 2947 2948 2950 2951 2950 2951 2952 2952 2953 2953 2954 2955 2956 2958 2959 2960 2961 2963 2964 2965 2966 2967
2988 2986 2985 2982 2980 2978 2976 2974 2972 2970 2967 2965 2963 2961 2959 2957 2954 2951 2949 2946 2944 2942 2941 2939 2938 2937 2936 2935 2934 2933 2933 2932 2932 2932 2932 2933 2933 2935 2936 2937 2937 2938 2938 2940 2941 2942 2943 2944 2945 2946 2947 2947 2947 2947 2949 2950 2951 2952 2953 2955 2956 2957 2957 2959 2960 2961 2961 2962 2963
2986 2985 2982 2980 2978 2976 2974 2972 2970 2967 2965 2963 2961 2959 2957 2955 2952 2949 2947 2945 2942 2941 2939 2938 2937 2935 2934 2933 2932 2931 2931 2930 2930 2930 2930 2930 2931 2932 2933 2934 2935 2935 2936 2937 2939 2940 2941 2942 2943 2944 2944 2944 2943 2944 2945 2946 2948 2950 2951 2952 2953 2954 2955 2955 2956 2957 2958 2959 2960
2985 2983 2980 2979 2976 2974 2972 2970 2967 2965 2963 2960 2959 2957 2955 2952 2950 2947 2945 2943 2941 2940 2938 2937 2935 2934 2933 2932 2931 2930 2929 2929 2928 2928 2928 2928 2929 2930 2931 2932 2932 2932 2933 2935 2936 2937 2938 2940 2940 2941 2941 2941 2942 2942 2943 2944 2945 2947 2948 2949 2950 2951 2952 2953 2954 2955 2955 2956 2957
2983 2981 2979 2977 2975 2973 2970 2968 2965 2963 2961 2959 2957 2955 2953 2951 2948 2946 2944 2941 2940 2938 2937 2936 2934 2933 2931 2930 2929 2929 2928 2927 2927 2927 2927 2927 2927 2928 2929 2930 2930 2930 2931 2933 2934 2935 2936 2937 2938 2938 2938 2938 2939 2940 2940 2942 2943 2944 2945 2946 2947 2948 2949 2950 2951 2952 2953 2954 2955
2981 2979 2977 2975 2973 2971 2969 2966 2964 2961 2959 2957 2955 2953 2951 2949 2947 2945 2942 2940 2939 2937 2936 2935 2933 2932 2930 2929 2928 2928 2927 2926 2926 2925 2925 2925 2925 2926 2927 2928 2929 2929 2930 2930 2931 2933 2934 2935 2936 2936 2936 2936 2937 2937 2938 2939 2940 2941 2942 2943 2945 2945 2946 2947 2948 2949 2950 2951 2952
2979 2977 2975 2973 2971 2969 2967 2965 2962 2960 2957 2955 2953 2952 2950 2948 2946 2944 2941 2940 2938 2936 2935 2934 2932 2931 2930 2929 2928 2927 2926 2926 2925 2925 2925 2925 2925 2925 2926 2927 2928 2929 2929 2929 2930 2930 2931 2932 2934 2935 2935 2935 2935 2935 2936 2937 2938 2939 2940 2941 2942 2943 2943 2944 2945 2946 2947 2948 2949
2977 2975 2973 2971 2969 2967 2965 2963 2961 2958 2956 2953 2952 2950 2949 2947 2945 2943 2941 2939 2937 2936 2935 2933 2932 2931 2930 2929 2928 2927 2926 2925 2924 2924 2924 2924 2924 2924 2925 2926 2927 2928 2928 2928 2928 2928 2928 2929 2930 2931 2933 2934 2934 2934 2934 2935 2936 2937 2938 2939 2940 2940 2940 2941 2942 2944 2945 2946 2947
2975 2973 2971 2969 2967 2965 2963 2961 2959 2956 2954 2952 2950 2949 2947 2946 2944 2942 2940 2939 2937 2936 2934 2933 2932 2930 2930 2928 2927 2926 2925 2925 2924 2924 2924 2923 2923 2923 2924 2925 2925 2926 2927 2926 2926 2926 2926 2927 2928 2929 2930 2931 2931 2932 2933 2933 2934 2935 2936 2937 2937 2938 2938 2939 2940 2941 2943 2944 2945
2973 2971 2969 2967 2965 2963 2961 2959 2957 2955 2953 2950 2949 2947 2946 2945 2943 2942 2940 2938 2937 2935 2934 2933 2931 2930 2929 2928 2927 2926 2925 2925 2924 2923 2923 2922 2922 2922 2923 2923 2924 2925 2925 2925 2925 2925 2925 2925 2926 2927 2928 2928 2929 2930 2930 2931 2932 2933 2934 2935 2935 2936 2936 2936 2937 2939 2940 2941 2942
2971 2969 2967 2965 2964 2962 2960 2958 2956 2954 2951 2949 2947 2946 2945 2944 2942 2941 2939 2937 2936 2935 2934 2932 2931 2930 2929 2928 2927 2926 2925 2924 2924 2923 2922 2922 2921 2921 2922 2922 2923 2923 2923 2923 2924 2924 2924 2924 2924 2925 2925 2926 2927 2927 2928 2929 2930 2930 2931 2932 2933 2934 2934 2934 2935 2936 2938 2939 2940
2969 2967 2965 2964 2962 2960 2958 2956 2954 2952 2950 2948 2946 2944 2943 2942 2941 2940 2939 2937 2936 2935 2933 2932 2931 2930 2929 2928 2927 2926 2925 2924 2923 2922 2922 2921 2921 2921 2921 2921 2921 2922 2922 2923 2923 2923 2923 2923 2923 2924 2924 2925 2925 2926 2926 2927 2928 2929 2930 2930 2931 2932 2932 2933 2933 2934 2935 2936 2937
2967 2965 2964 2962 2960 2958 2956 2955 2953 2951 2949 2947 2945 2943 2942 2941 2940 2939 2938 2936 2935 2934 2933 2932 2931 2930 2929 2928 2927 2925 2925 2923 2922 2922 2921 2920 2920 2920 2920 2920 2920 2921 2921 2922 2922 2922 2922 2922 2922 2923 2923 2924 2924 2925 2925 2925 2926 2927 2928 2928 2929 2930 2930 2931 2931 2932 2933 2933 2934
2965 2964 2962 2960 2958 2957 2955 2953 2951 2950 2948 2945 2944 2942 2940 2939 2938 2937 2937 2935 2934 2933 2932 2931 2930 2929 2928 2927 2926 2925 2924 2923 2922 2921 2921 2920 2920 2920 2919 2919 2920 2920 2920 2920 2921 2921 2921 2921 2921 2921 2922 2922 2922 2923 2923 2924 2924 2925 2925 2926 2926 2927 2928 2928 2929 2929 2930 2930 2931
2964 2962 2960 2959 2957 2955 2953 2952 2950 2948 2946 2945 2943 2941 2939 2938 2937 2936 2935 2935 2934 2932 2931 2930 2929 2928 2927 2926 2925 2925 2924 2923 2922 2921 2920 2920 2920 2919 2919 2919 2919 2919 2919 2919 2919 2919 2920 2920 2920 2920 2920 2920 2921 2921 2921 2922 2922 2922 2923 2923 2924 2925 2925 2925 2926 2926 2927 2928 2929
2962 2960 2959 2957 2955 2953 2952 2950 2949 2947 2945 2944 2942 2940 2938 2937 2935 2935 2934 2933 2932 2932 2931 2930 2928 2927 2926 2925 2925 2924 2923 2922 2921 2921 2920 2920 2919 2919 2919 2919 2919 2918 2918 2918 2918 2918 2918 2918 2919 2919 2919 2919 2919 2919 2919 2920 2920 2920 2920 2921 2921 2922 2922 2923 2923 2924 2925 2925 2926
2960 2959 2957 2955 2954 2952 2950 2949 2947 2946 2944 2942 2940 2939 2937 2935 2934 2933 2932 2932 2931 2930 2930 2929 2928 2926 2925 2924 2923 2923 2922 2921 2921 2920 2920 2919 2919 2918 2918 2918 2918 2918 2918 2917 2917 2917 2917 2917 2917 2917 2917 2917 2917 2917 2918 2918 2918 2919 2919 2919 2919 2920 2920 2920 2921 2921 2922 2923 2923
2959 2957 2955 2954 2952 2950 2949 2947 2946 2944 2943 2941 2940 2938 2936 2935 2933 2932 2931 2930 2930 2929 2928 2928 2927 2925 2924 2923 2922 2921 2921 2920 2920 2920 2919 2919 2918 2918 2917 2917 2917 2916 2917 2917 2916 2916 2916 2916 2916 2916 2916 2916 2916 2916 2916 2916 2917 2917 2917 2917 2917 2918 2918 2918 2918 2919 2920 2920 2921
2957 2955 2954 2952 2950 2949 2947 2946 2944 2943 2941 2940 2939 2937 2935 2934 2932 2931 2930 2929 2928 2927 2927 2926 2925 2925 2923 2922 2921 2920 2920 2919 2919 2918 2918 2917 2917 2917 2916 2916 2916 2915 2915 2916 2916 2915 2915 2915 2915 2915 2915 2915 2915 2915 2915 2915 2915 2915 2915 2915 2916 2916 2916 2916 2916 2916 2917 2918 2918
2955 2954 2952 2950 2949 2947 2946 2944 2943 2941 2940 2939 2937 2936 2935 2933 2931 2930 2929 2928 2926 2926 2925 2925 2924 2923 2922 2921 2920 2919 2918 2918 2917 2917 2916 2916 2916 2915 2915 2915 2915 2915 2915 2915 2915 2915 2915 2914 2914 2915 2914 2914 2914 2914 2914 2914 2914 2914 2914 2914 2914 2914 2914 2914 2914 2914 2915 2915 2916
2955 2953 2951 2949 2948 2946 2945 2943 2941 2940 2939 2937 2936 2935 2934 2932 2931 2929 2928 2927 2925 2925 2924 2923 2922 2922 2921 2920 2919 2918 2917 2916 2915 2915 2915 2915 2914 2914 2914 2914 2914 2914 2914 2913 2914 2913 2913 2913 2913 2913 2913 2913 2913 2913 2912 2912 2912 2912 2911 2911 2911 2911 2911 2911 2911 2912 2912 2913 2913
2953 2951 2950 2948 2946 2945 2943 2942 2940 2939 2937 2936 2935 2934 2933 2931 2930 2929 2927 2926 2925 2923 2922 2922 2921 2920 2920 2919 2918 2917 2916 2915 2915 2914 2913 2913 2913 2912 2912 2912 2912 2912 2912 2912 2912 2912 2912 2911 2911 2911 2911 2911 2911 2911 2910 2910 2910 2910 2909 2909 2909 2909 2909 2909 2909 2910 2910 2911 2911
2952 2950 2949 2947 2945 2944 2942 2940 2939 2938 2936 2935 2934 2932 2931 2930 2929 2928 2926 2925 2924 2922 2921 2920 2920 2919 2918 2917 2917 2916 2915 2915 2914 2913 2912 2911 2911 2911 2911 2911 2910 2911 2911 2911 2910 2910 2910 2910 2910 2910 2910 2910 2910 2909 2909 2909 2908 2908 2907 2907 2907 2907 2907 2907 2907 2907 2908 2909 2909
2950 2949 2947 2945 2944 2942 2941 2940 2938 2936 2935 2934 2932 2931 2930 2929 2928 2926 2925 2924 2923 2921 2920 2919 2918 2917 2916 2916 2915 2915 2914 2914 2913 2912 2911 2910 2910 2909 2909 2909 2909 2910 2910 2910 2910 2909 2907 2907 2908 2908 2908 2908 2908 2908 2907 2907 2907 2906 2906 2905 2905 2905 2905 2905 2905 2905 2906 2906 2907
2949 2947 2946 2944 2943 2941 2940 2938 2937 2935 2934 2932 2931 2930 2929 2928 2926 2925 2924 2923 2922 2920 2919 2918 2917 2915 2915 2914 2913 2913 2913 2912 2911 2910 2910 2909 2908 2908 2908 2908 2908 2908 2909 2909 2909 2907 2905 2905 2905 2905 2905 2905 2905 2906 2905 2905 2905 2905 2904 2904 2903 2903 2903 2903 2904 2904 2904 2905 2905
2947 2946 2944 2942 2941 2940 2938 2937 2935 2934 2933 2931 2930 2929 2927 2926 2925 2924 2923 2922 2921 2920 2918 2917 2916 2915 2914 2913 2912 2911 2911 2910 2910 2909 2908 2907 2906 2906 2906 2906 2906 2906 2907 2907 2907 2905 2902 2903 2903 2902 2903 2903 2903 2903 2903 2903 2903 2902 2902 2901 2901 2901 2901 2902 2902 2902 2902 2903 2903
2946 2944 2942 2941 2940 2938 2937 2935 2934 2933 2931 2930 2929 2927 2926 2925 2924 2923 2921 2920 2919 2918 2917 2916 2915 2914 2913 2912 2911 2910 2909 2909 2908 2907 2906 2905 2905 2905 2905 2904 2904 2904 2904 2904 2905 2903 2900 2901 2900 2900 2900 2900 2901 2901 2901 2900 2900 2900 2900 2899 2899 2899 2900 2900 2900 2900 2900 2900 2901
2944 2943 2941 2940 2938 2936 2935 2934 2932 2931 2930 2929 2927 2926 2925 2923 2922 2921 2920 2919 2918 2917 2915 2915 2914 2913 2912 2911 2910 2909 2908 2907 2907 2906 2905 2905 2904 2904 2903 2903 2902 2902 2902 2902 2902 2901 2900 2899 2899 2899 2899 2898 2898 2898 2899 2898 2898 2898 2898 2897 2897 2897 2897 2898 2898 2898 2898 2898 2899
2943 2941 2940 2938 2936 2935 2934 2932 2931 2930 2928 2927 2926 2925 2923 2922 2921 2920 2919 2918 2916 2915 2914 2913 2912 2911 2910 2910 2909 2908 2907 2906 2905 2905 2904 2904 2903 2903 2902 2902 2901 2901 2900 2900 2900 2900 2899 2898 2897 2897 2896 2896 2896 2896 2896 2897 2897 2896 2896 2896 2895 2895 2895 2896 2896 2896 2896 2897 2897
2941 2940 2938 2937 2935 2934 2932 2930 2929 2928 2927 2925 2924 2923 2922 2921 2920 2919 2917 2916 2915 2914 2913 2912 2911 2910 2909 2908 2907 2906 2905 2905 2904 2904 2903 2903 2902 2902 2901 2901 2900 2900 2899 2899 2899 2899 2898 2897 2896 2895 2895 2895 2895 2895 2895 2895 2895 2895 2895 2895 2894 2894 2894 2894 2895 2895 2895 2895 2896